Date String (YYYY-MM-DD hh:mm:ss) UTC,Instrument flags,absolute air pressure of the measurement (hPa),sample flow rate (lpm),inlet stack bypass flow (lpm),air temperature of the measurement (°C),ambient temperature measured by the external sensor (°C),aerosol sample conditioner tube jacket temperature (°C),OPC LED temperature (°C),internal box temperature (°C),relative humidity of the measurement (%),span deviation,mass concentration of particles derived from Lorenz-Mie calculation of OPC scattering (μg/m³),mass concentration of particles derived from Lorenz-Mie calculation of OPC scattering (μg/m³),mass concentration of particles derived from Lorenz-Mie calculation of OPC scattering (μg/m³)
DateTimeUTC,F1_M11,P_M11,Q1_M11,Q2_M11,T1_M11,T2_M11,T3_M11,T4_M11,T5_M11,U1_M11,ZSPAN_M11,X0_M11,X2_M11,X1_M11
2023-09-12 02:00:00,SystemResetWarning,0836.1,4.99,000.00,028.6,027.2,000.0,036.8,030.2,29.6,-001.2,0008.88,0005.74,0005.42
2023-09-12 02:01:00,SystemResetWarning,0836.1,4.99,000.00,028.5,025.6,000.0,036.7,030.0,29.7,-000.9,0008.85,0005.73,0005.43
2023-09-12 02:02:00,SystemResetWarning,0836.1,5.01,000.00,028.5,024.7,000.0,036.6,029.8,29.7,-001.2,0008.94,0005.77,0005.44
2023-09-12 02:03:00,SystemResetWarning,0836.1,5.01,000.00,028.3,024.6,000.0,036.6,029.6,29.7,-000.5,0008.98,0005.79,0005.46
2023-09-12 02:04:00,SystemResetWarning,0836.1,5.00,000.00,028.2,024.9,000.0,036.6,029.5,29.9,-000.2,0009.02,0005.81,0005.46
2023-09-12 02:05:00,SystemResetWarning,0836.1,5.00,000.00,028.2,025.3,000.0,036.6,029.5,30.0,-000.5,0009.03,0005.83,0005.47
2023-09-12 02:06:00,SystemResetWarning,0836.1,5.00,000.00,028.2,025.6,000.0,036.6,029.6,30.0,-000.4,0009.00,0005.82,0005.47
2023-09-12 02:07:00,SystemResetWarning,0836.1,5.00,000.00,028.2,025.9,000.0,036.6,029.6,30.2,-000.1,0008.74,0005.82,0005.47
2023-09-12 02:08:00,SystemResetWarning,0836.1,5.00,000.00,028.2,026.2,000.0,036.6,029.7,30.2,-000.0,0009.10,0005.83,0005.48
2023-09-12 02:09:00,SystemResetWarning,0836.1,5.01,000.00,028.2,026.4,000.0,036.6,029.8,30.1,0000.1,0009.07,0005.82,0005.48
2023-09-12 02:10:00,SystemResetWarning,0836.1,5.00,000.00,028.2,026.6,000.0,036.6,029.8,30.0,0000.4,0009.05,0005.80,0005.48
2023-09-12 02:11:00,SystemResetWarning,0836.1,5.00,000.00,028.3,026.8,000.0,036.6,029.9,29.9,0000.9,0009.00,0005.76,0005.48
2023-09-12 02:12:00,SystemResetWarning,0836.1,5.00,000.00,028.3,026.9,000.0,036.6,029.9,29.8,0000.3,0009.01,0005.77,0005.48
2023-09-12 02:13:00,SystemResetWarning,0836.1,4.99,000.00,028.3,027.0,000.0,036.7,030.0,29.8,0000.3,0009.03,0005.75,0005.48
2023-09-12 02:14:00,SystemResetWarning,0836.1,5.00,000.00,028.3,027.1,000.0,036.7,030.0,29.7,-000.2,0009.04,0005.74,0005.48
2023-09-12 02:15:00,SystemResetWarning,0836.1,5.01,000.00,028.4,027.2,000.0,036.7,030.1,29.7,-000.6,0008.98,0005.71,0005.47
2023-09-12 02:16:00,SystemResetWarning,0836.1,5.00,000.00,028.4,027.3,000.0,036.7,030.1,29.7,-000.7,0008.98,0005.71,0005.47
2023-09-12 02:17:00,SystemResetWarning,0836.1,5.01,000.00,028.4,027.4,000.0,036.7,030.2,29.5,-001.2,0009.05,0005.71,0005.47
2023-09-12 02:18:00,SystemResetWarning,0836.1,5.00,000.00,028.5,027.4,000.0,036.7,030.2,29.6,-001.6,0009.13,0005.73,0005.48
2023-09-12 02:19:00,SystemResetWarning,0836.1,5.00,000.00,028.5,027.5,000.0,036.8,030.2,29.5,-001.8,0008.67,0005.74,0005.49
2023-09-12 02:20:00,SystemResetWarning,0836.1,5.00,000.00,028.6,027.5,000.0,036.8,030.3,29.5,-001.9,0008.68,0005.75,0005.50
2023-09-12 02:21:00,SystemResetWarning,0836.1,4.99,000.00,028.6,027.0,000.0,036.8,030.2,29.6,-002.0,0008.71,0005.78,0005.51
2023-09-12 02:22:00,SystemResetWarning,0836.1,4.99,000.00,028.5,025.4,000.0,036.7,029.9,29.7,-002.3,0008.70,0005.79,0005.50
2023-09-12 02:23:00,SystemResetWarning,0836.1,5.01,000.00,028.4,024.6,000.0,036.6,029.8,29.7,-002.0,0008.80,0005.82,0005.50
2023-09-12 02:24:00,SystemResetWarning,0836.1,5.01,000.00,028.3,024.7,000.0,036.6,029.6,29.9,-002.0,0008.77,0005.82,0005.50
2023-09-12 02:25:00,SystemResetWarning,0836.1,5.00,000.00,028.2,025.0,000.0,036.6,029.5,30.0,-001.6,0008.71,0005.83,0005.51
2023-09-12 02:26:00,SystemResetWarning,0836.1,5.00,000.00,028.2,025.4,000.0,036.6,029.5,30.0,-001.5,0008.72,0005.82,0005.51
2023-09-12 02:27:00,SystemResetWarning,0836.1,5.00,000.00,028.2,025.7,000.0,036.6,029.6,29.9,-001.3,0008.78,0005.85,0005.51
2023-09-12 02:28:00,SystemResetWarning,0836.1,5.01,000.00,028.2,026.0,000.0,036.6,029.6,29.9,-001.0,0008.80,0005.89,0005.53
2023-09-12 02:29:00,SystemResetWarning,0836.1,5.01,000.00,028.2,026.3,000.0,036.6,029.7,29.9,-000.7,0008.80,0005.92,0005.57
2023-09-12 02:30:00,SystemResetWarning,0836.1,5.00,000.00,028.2,026.5,000.0,036.6,029.7,29.8,-000.5,0008.82,0005.91,0005.58
2023-09-12 02:31:00,SystemResetWarning,0836.1,5.00,000.00,028.2,026.7,000.0,036.6,029.8,29.8,-000.2,0008.92,0005.93,0005.57
2023-09-12 02:32:00,SystemResetWarning,0836.1,5.00,000.00,028.2,026.9,000.0,036.6,029.9,29.8,-000.3,0009.06,0005.94,0005.59
2023-09-12 02:33:00,SystemResetWarning,0836.1,5.00,000.00,028.3,027.0,000.0,036.7,029.9,29.7,-000.2,0009.45,0005.99,0005.64
2023-09-12 02:34:00,SystemResetWarning,0836.1,5.00,000.00,028.3,027.1,000.0,036.7,029.9,29.7,0000.2,0009.63,0006.01,0005.67
2023-09-12 02:35:00,SystemResetWarning,0836.1,4.99,000.00,028.3,027.2,000.0,036.7,030.0,29.6,0000.4,0009.89,0006.00,0005.68
2023-09-12 02:36:00,SystemResetWarning,0836.1,5.00,000.00,028.4,027.3,000.0,036.7,030.0,29.6,0000.4,0009.89,0006.00,0005.68
2023-09-12 02:37:00,SystemResetWarning,0836.1,5.01,000.00,028.4,027.3,000.0,036.7,030.1,29.6,0000.9,0009.96,0006.05,0005.71
2023-09-12 02:38:00,SystemResetWarning,0836.1,5.00,000.00,028.4,027.4,000.0,036.7,030.1,29.6,0001.2,0009.97,0006.07,0005.74
2023-09-12 02:39:00,SystemResetWarning,0836.1,5.00,000.00,028.5,027.5,000.0,036.8,030.2,29.6,0001.4,0009.95,0006.06,0005.75
2023-09-12 02:40:00,SystemResetWarning,0836.1,5.00,000.00,028.5,027.5,000.0,036.8,030.2,29.6,0001.5,0009.95,0006.08,0005.75
2023-09-12 02:41:00,SystemResetWarning,0836.1,4.99,000.00,028.6,027.6,000.0,036.8,030.2,29.8,0001.4,0010.01,0006.14,0005.77
2023-09-12 02:42:00,SystemResetWarning,0836.1,5.00,000.00,028.6,027.4,000.0,036.8,030.2,29.8,0001.2,0010.07,0006.16,0005.79
2023-09-12 02:43:00,SystemResetWarning,0836.1,4.99,000.00,028.6,025.8,000.0,036.7,029.9,29.8,0001.6,0010.10,0006.17,0005.80
2023-09-12 02:44:00,SystemResetWarning,0836.1,5.00,000.00,028.5,024.7,000.0,036.7,029.7,29.7,0001.3,0009.76,0006.18,0005.79
2023-09-12 02:45:00,SystemResetWarning,0836.1,5.02,000.00,028.4,024.6,000.0,036.6,029.5,29.8,0001.0,0009.64,0006.19,0005.79
2023-09-12 02:46:00,SystemResetWarning,0836.1,5.00,000.00,028.3,024.8,000.0,036.6,029.4,30.1,0001.0,0009.25,0006.20,0005.81
2023-09-12 02:47:00,SystemResetWarning,0836.1,4.99,000.00,028.2,025.2,000.0,036.6,029.5,30.1,0001.1,0009.28,0006.23,0005.83
2023-09-12 02:48:00,SystemResetWarning,0836.1,5.01,000.00,028.2,025.6,000.0,036.6,029.5,30.1,0000.8,0009.25,0006.23,0005.83
2023-09-12 02:49:00,SystemResetWarning,0836.1,5.00,000.00,028.2,025.9,000.0,036.6,029.6,30.2,0000.7,0009.24,0006.23,0005.82
2023-09-12 02:50:00,SystemResetWarning,0836.1,5.00,000.00,028.2,026.1,000.0,036.6,029.6,30.5,0000.3,0009.23,0006.22,0005.80
2023-09-12 02:51:00,SystemResetWarning,0836.1,4.99,000.00,028.2,026.4,000.0,036.6,029.7,30.7,0000.4,0009.09,0006.15,0005.78
2023-09-12 02:52:00,SystemResetWarning,0836.1,5.00,000.00,028.2,026.6,000.0,036.6,029.7,30.9,0000.2,0009.06,0006.13,0005.77
2023-09-12 02:53:00,SystemResetWarning,0836.1,4.99,000.00,028.2,026.7,000.0,036.6,029.8,31.4,0000.4,0009.13,0006.14,0005.77
2023-09-12 02:54:00,SystemResetWarning,0836.1,4.99,000.00,028.3,026.9,000.0,036.7,029.8,31.2,-000.3,0009.12,0006.15,0005.77
2023-09-12 02:55:00,SystemResetWarning,0836.1,5.00,000.00,028.3,027.0,000.0,036.7,029.9,31.1,-000.2,0009.29,0006.14,0005.79
2023-09-12 02:56:00,SystemResetWarning,0836.1,5.00,000.00,028.3,027.1,000.0,036.7,029.9,31.0,-000.1,0009.37,0006.15,0005.80
2023-09-12 02:57:00,SystemResetWarning,0836.1,5.00,000.00,028.3,027.1,000.0,036.7,029.9,30.8,-000.1,0009.40,0006.15,0005.79
2023-09-12 02:58:00,SystemResetWarning,0836.2,4.99,000.00,028.4,027.2,000.0,036.7,030.0,30.9,-000.4,0009.45,0006.18,0005.80
2023-09-12 02:59:00,SystemResetWarning,0836.2,4.99,000.00,028.4,027.3,000.0,036.7,030.0,30.7,-000.4,0009.54,0006.19,0005.82
